ARIANE 2 DEB, 27649

Orbit data source: Space-Track

ARIANE 2 DEB, 27649 is space debris in HEO originally from a launch on Fri, 27 Jan 1989 UTC launched from the French Guiana (FRGUI). Debris objects in space refer to the collection of defunct objects orbiting the Earth. Examples of debris include non-operational satellites, rocket bodies, and fragments generated from explosions, collisions, or faulty payload assembly.

Loading next visibility...
ARIANE 2 DEB details
Identifier
27649, 1989-006AD
Orbit
HEO
Last TLE update13 hours ago
Origin
Flag of FRArianespace (FR)
ManufacturerEADS/LV
MissionSpacecraft
Bus & MotorUnknown
MassUnknown
Launch date (UTC)
1989-01-27 (36 years ago)
Launch vehicleUnknown
Launch site
French Guiana (FRGUI)
Object type
Payload
Rocket body
Debris
Shape & HBRUnknown
Radar Cross SectionMedium (>0.1 m² and <1 m²)

Expand to show TLE details & history

TLE from 13 hours ago
0 ARIANE 2 DEB
1 27649U 89006AD  24361.21937826 -.00000033  00000-0  00000-0 0  9992
2 27649   8.4307  30.3558 6996604 189.5611 226.9377  2.22965013 93836
Epoch: 2024-12-26T05:15Z
Definitive object data (Epoch: 2024-12-26T05:15:54.281Z)
Latitude3.10347°
Longitude-122.44202°
Altitude33,659.433 km
Speed1.951 km/s
True Right ascension03h 26m 56s
True Declination3° 06' 01"
Sunlit
Object was in daylight at TLE epoch
Visualization TLE readout
Latitude6.73687°
Longitude-91.50856°
Altitude19,589.03 km
Speed3.82 km/s
Apparent Right ascension05h 33m 10s
Apparent Declination-1° 55' 20"
Sunlit
Object is in daylight
Visualization observer readout
Local Sidereal Time17:46:18
Azimuth5.323° NNE
Elevation-51.889°
Doppler factor1
Orbital elements
Apogee altitude35,696.719 km
Perigee altitude1,056.728 km
Semi-major axis24,754.86 km
Eccentricity0.6996604
Inclination8.4307°
RAAN30.3558°
Arg. of periapsis189.5611°
True anomaly191.99862°
Mean anomaly226.9377°
Eccentric anomaly208.07277°
Mean motion0.55725 °/min
BSTARUnknown
Orbital period646.03 mins
Loading maneuver chart data...
Loading historical data...
Loading historical data...
Loading historical data...
Loading historical data...
Loading historical data...
Loading historical data...
Loading historical data...

ARIANE 2 DEB Visibility forecast

Observer location: undefined°, undefined

Span
Click to sort rows by Start time (UTC) header in descending order
Start Az.
Max El. time (UTC)
Max El. Az.
Max El.
End time (UTC)
End Az.
585 mins2024-12-26 20:29:49.024Z167.047° S2024-12-27 04:26:49.024Z158.493° S35.62°2024-12-27 06:14:49.024Z117.023° SE
|